User: anonymous   Login
Location: Unspecified
(0.0000°N, 0.0000°E)
Time: 22:03:22
(UTC+00:00)
Language:

SR 8 - Orbit

View from above orbital plane
View from above orbital plane
View from above satellite
View from above satellite

Ground track
Ground track

The orbit data is extracted from the following two-line orbital elements,

1  1738U 65093A   17289.95280650 -.00000087 +00000-0 +19958-4 0  9996
2  1738 059.7079 192.2132 0135938 025.6541 335.1158 14.40133601700398
Epoch (UTC): 16 October 2017 22:52:02
Eccentricity: 0.0135938
inclination: 59.7079°
perigee height: 661 km
apogee height: 855 km
right ascension of ascending node: 192.2132°
argument of perigee: 25.6541°
revolutions per day: 14.40133601
mean anomaly at epoch: 335.1158°
orbit number at epoch: 70039

The dashed part of the orbit path shows where the satellite is in the earth's shadow,  

DLR